Location: Poprad
(49.0500°N, 20.3000°E)
Time: 19:04:03
(UTC+02:00)

RS-44 - Pass Details

Date: 23 April 2024
Orbit: 1174 x 1511 km, 82.5° (Epoch: 20 May)

Event Time Altitude Azimuth Distance (km) Brightness Sun altitude
Rises 20:41:55 0° 197° (SSW) 4,629 ? -9.4°
Reaches altitude 10° 20:44:53 10° 200° (SSW) 3,635 ? -9.8°
Maximum altitude 20:53:38 69° 283° (WNW) 1,537 ? -11.0°
Drops below altitude 10° 21:01:56 10° 7° (N) 3,452 ? -12.1°
Sets 21:04:41 0° 10° (N) 4,385 ? -12.4°
